Location: Lahas
(43.5538°N, 0.8906°E)
Time: 20:03:07
(UTC+00:00)

Cosmos 1302 Rocket - Pass Details

Date: 15 May 2026
Orbit: 752 x 772 km, 74.0° (Epoch: 8 June)

Event Time Altitude Azimuth Distance (km) Brightness Sun altitude
Rises 20:08:29 0° 205° (SSW) 3,187 7.1 -9.1°
Reaches altitude 10° 20:10:50 10° 207° (SSW) 2,268 6.3 -9.4°
Maximum altitude 20:15:58 72° 292° (WNW) 796 4.3 -10.1°
Drops below altitude 10° 20:21:09 10° 17° (NNE) 2,291 6.8 -10.9°
Sets 20:23:33 0° 19° (NNE) 3,224 7.5 -11.2°
